Torna al catalogo

COSMOS 2251 DEB

AttivoLEO
NORAD 47073·DEBRIS·🇷🇺 Russia

Lanciato Jun 16, 1993 da Plesetsk Cosmodrome

Loading…

Prossimi Passaggi (prossime 24 ore)

TLE

ObsoletoSource: Space-Track

Epoca: Aug 16, 2026, 10:59 UTC

1 47073U 93036BYD 26228.45814955  .00000348  00000-0  20486-3 0  9991
2 47073  74.0832 132.4380 0160353 110.9689 250.8690 14.05141773638268

Traccia COSMOS 2251 DEB in tempo reale con AllMySat

Download on the App Store